Lid_Strength_Index
9 12 13 12 12 13 12 13 15 16 14 15 16 15 12 13 13 13 12 10 8 6 5 5 5 4 4 4 3 2 2 2 2 2 2 2 1 1 0 -0 0 0 0 1
11 14 12 11 12 13 14 15 14 14 14 15 17 16 14 15 13 13 12 12 10 9 9 10 8 6 5 5 3 3 2 2 2 2 2 3 3 3 2 1 0 -0 1 1
13 13 11 11 13 14 15 17 17 15 15 16 17 17 15 15 15 13 13 12 12 11 10 11 11 10 7 5 4 3 2 1 1 1 3 4 4 4 2 2 1 1 0 1
13 12 11 12 13 12 15 13 14 15 15 19 18 20 16 16 15 15 13 13 12 12 12 12 11 12 10 5 4 3 2 2 2 2 2 3 3 3 3 2 1 2 1 0
14 13 13 13 12 12 14 12 14 14 16 18 20 22 18 18 17 17 14 13 12 10 11 11 11 11 11 8 6 4 3 3 3 2 2 3 3 3 4 4 3 2 1 0
13 12 11 11 11 11 11 13 13 15 16 20 18 21 21 18 16 16 15 12 11 10 12 12 12 11 10 9 9 8 8 6 5 3 3 3 3 4 4 4 2 2 1 1
15 15 14 12 13 13 12 13 19 19 20 20 20 21 17 16 16 16 14 14 14 14 13 12 11 10 9 8 8 7 8 10 11 9 3 3 3 4 4 4 3 2 2 2
16 18 15 14 14 15 13 13 19 23 23 21 19 21 19 16 14 16 15 14 14 13 13 12 10 10 9 8 7 7 8 8 9 10 10 4 2 3 3 4 4 3 3 1
17 17 14 14 14 12 15 15 14 19 25 23 20 19 16 16 15 16 14 14 12 12 11 11 10 10 10 8 7 7 7 7 7 7 7 7 2 2 3 4 5 4 4 4
15 17 15 14 13 14 13 13 17 18 25 25 21 20 18 18 16 15 15 13 12 12 11 11 10 10 10 9 8 7 7 7 7 7 6 5 3 2 3 4 6 6 6 5
14 15 16 15 15 16 16 16 16 16 19 22 24 20 17 15 15 16 15 13 12 12 11 11 10 10 10 9 9 9 8 8 8 8 7 6 5 5 6 6 7 8 7 7
13 15 18 17 14 14 16 15 15 18 19 20 20 19 16 15 16 15 15 14 12 11 10 10 10 10 10 10 10 9 9 9 9 10 9 9 9 8 9 10 11 9 10 9
13 17 21 17 16 15 16 17 16 16 17 19 21 18 16 15 15 14 13 13 11 11 11 10 11 10 10 10 10 10 10 11 11 11 11 11 11 10 11 12 12 11 12 11
9 14 16 18 17 15 16 16 16 15 17 18 19 17 15 16 15 13 13 13 12 11 11 11 11 10 11 10 10 11 11 11 12 12 12 12 12 12 12 12 12 12 12 13
11 16 16 16 16 15 15 15 14 15 14 16 15 17 15 14 13 12 12 12 12 11 10 10 11 11 11 11 11 11 12 12 12 12 12 13 13 13 13 14 14 14 14 15
12 19 16 19 15 15 16 15 14 13 14 14 17 17 15 14 12 11 11 11 11 11 10 10 10 10 10 11 11 11 12 13 13 13 13 14 14 15 15 15 15 15 15 16
13 16 18 22 17 16 18 16 15 14 14 15 16 14 14 14 13 12 11 10 10 10 9 10 9 9 10 11 11 12 13 13 14 14 14 14 15 15 15 15 16 16 16 15
13 14 15 18 17 19 16 15 13 14 13 13 15 14 13 12 11 11 11 10 10 10 10 10 9 10 11 12 12 13 13 14 14 15 15 15 15 16 16 16 16 16 16 16
12 13 17 17 19 16 14 15 14 15 14 12 13 12 12 13 12 11 12 11 10 9 9 10 10 10 12 12 12 13 14 15 15 15 15 16 16 16 16 17 17 17 17 17
13 12 13 25 19 20 16 13 13 12 16 13 12 12 12 12 14 11 12 11 11 10 10 10 11 12 12 13 13 13 14 15 15 15 15 15 16 16 17 17 18 18 18 17
19 18 15 24 22 19 15 14 13 17 16 15 13 12 12 12 11 12 12 13 14 13 12 12 12 13 13 14 13 14 15 15 15 16 16 17 17 18 18 18 19 19 18 18
17 18 20 21 23 19 15 14 14 13 14 13 12 13 12 13 13 13 13 13 14 15 14 14 14 14 14 14 13 14 15 16 17 17 18 18 19 18 19 19 21 20 20 20
17 15 17 15 16 14 14 13 13 12 12 12 12 12 13 13 14 14 14 14 14 15 15 16 16 16 17 16 14 15 17 17 18 18 19 20 20 20 20 20 21 20 20 20
14 13 15 14 14 14 13 13 13 13 12 13 13 13 13 13 14 14 15 15 15 17 16 18 17 17 18 18 17 16 17 18 18 19 20 20 20 21 21 20 20 19 20 20
14 13 16 16 15 14 13 12 12 13 13 13 14 13 13 14 14 14 16 17 16 17 18 18 18 18 19 20 19 19 18 18 19 20 20 20 20 21 21 20 20 20 20 18
15 14 14 16 12 11 12 12 12 13 13 13 13 14 14 14 14 15 17 17 18 19 20 19 19 19 20 20 20 20 19 18 19 20 20 21 21 21 20 20 22 18 17 16